ASIASAT 4

Last updated on Thu Nov 21 2024 00:02:40 GMT+0000 (Coordinated Universal Time)

1 27718U 03014A 24325.59910694 -.00000220 00000+0 00000+0 0 9995 2 27718 3.2303 82.9619 0003843 162.7681 177.6134 1.00272359 39541
UTC large
Height (km)
Speed (km/s)
/
Latitude / Longitude
Inclination (degrees)
Orbital Period (minutes)
Azimuth
Elevation
Range (km)
Doppler Factor

Next 0 passes for location: London (51.5072 / 0.1276)

Sorry there are no passes over London.